Welcome to our Virtual Airline
Sign-in:

Flight MFC108102

  • Submitted By: James Smith
  • Departure Airport: Danger Bay (DGB)
  • Arrival Airport: Port Williams (KPR)
  • Aircraft: CESSNA 170 (N170MM)
  • Flight Time: 00.50.45
  • Date Submitted: 22/03/23
  • Route: STOP KKB, PZ02, PZ05
  • Status: Accepted
Flight Details
Gross Revenue:
(2 load / $ 40.00 per unit
$ 80.00
Fuel Cost:
(11.7934 fuel used @ 5.1 / unit)
$ 60.15

Additional Log Information:

View Log

[13:20] ----- Flight Opened -----
[13:20] Cigar Box - 1.1.4.0
[13:20] FS:
[13:20] FSUIPC: v7.213
[13:20] Flight Number: MFC108102
[13:20] FS Aircraft: Savage Shock Ultra Floats Asobo
[13:20] FS Model: TT:ATCCOM.AC_MODEL_SAVG
[13:20] FS Type: TT:ATCCOM.ATC_NAME_SAVA
[13:20] Departure: DGB
[13:20] Arrival: KPR
[13:20] Flight Level: 4500
[13:20] Flight Type: H
[13:20] Passengers: 2
[13:20] FOB: 84 lbs
[13:20] Gate: n/a
[13:20] NOTE: Parking Brake Ignored
[13:20] Crash Detection: Disabled
[13:20] Crash Detection Aircraft: Disabled
[13:20] Engines: 1 Piston
[13:20] NOTE: Boarding has started
[13:20] Parking Brake: Engaged
[13:20] Landing Gear: Retracted
[13:20] Engine 1: Started
[13:20] Light Data: Beacon ON
[13:20] Light Data: Strobe lights ON
[13:20] Main Door Closed
[13:20] COM1: 122.90
[13:20] COM2: 124.85
[13:20] Transponder: 7000
[13:20] NAV1: 110.50
[13:20] NAV2: 110.50
[13:20] ADF1: 890.0
[13:20] ADF2: 890.0
[13:20] Navigation Mode: NAV
[13:21] Flaps: Position 1
[13:21] Parking Brake: Released
[13:21] NOTE: Taxi started
[13:22] NOTE: ----- TAKE OFF -----
[13:22] GS: 56 knots
[13:22] TAS: 56 knots
[13:22] IAS: 56 knots
[13:22] VS: 40 fpm
[13:22] FOB: 84 lbs
[13:22] Heading: 119°
[13:22] Pitch: 1°
[13:22] Bank: 3°
[13:22] Aircraft Weight: 1084.34 lbs
[13:22] Nearest Airport: DGB
[13:22] Distance: 0.09 miles
[13:22] Runway: ???
[13:22] Ground Surface: Asphalt
[13:22] Ground Condition: Normal
[13:22] NOTE: Weather Report
[13:22] Wind Heading: 236°
[13:22] Wind Speed: 3 knots
[13:22] OAT: 14° C
[13:22] TAT: 15° C
[13:22] Precipitation: None
[13:22] Dew Point: 0° C
[13:22] Visibility: 85 miles
[13:22] METAR:
[13:22] NOTE: Climb started
[13:22] View Mode: Virtual Cockpit
[13:24] Flaps: Position 0
[13:24] GS: 79 knots
[13:24] TAS: 76 knots
[13:24] IAS: 75 knots
[13:24] VS: -81 fpm
[13:29] Flaps: Position 1
[13:29] GS: 73 knots
[13:29] TAS: 71 knots
[13:29] IAS: 71 knots
[13:29] VS: -453 fpm
[13:29] Flaps: Position 2
[13:29] GS: 52 knots
[13:29] TAS: 52 knots
[13:29] IAS: 52 knots
[13:29] VS: -446 fpm
[13:30] NOTE: ----- LANDED -----
[13:30] Landing Rate: -300.66 fpm
[13:30] GS: 31 knots
[13:30] TAS: 34 knots
[13:30] IAS: 34 knots
[13:30] VS: -272 fpm
[13:30] FOB: 79 lbs
[13:30] Heading: 244°
[13:30] Pitch: 1°
[13:30] Bank: 0°
[13:30] Aircraft Weight: 1079.10 lbs
[13:30] Nearest Airport: KKB
[13:30] Distance: 0.41 miles
[13:30] Runway: ???
[13:30] Ground Surface: Water
[13:30] Ground Condition: Normal
[13:30] NOTE: Weather Report
[13:30] Wind Heading: 256°
[13:30] Wind Speed: 2 knots
[13:30] OAT: 15° C
[13:30] TAT: 15° C
[13:30] Precipitation: None
[13:30] Dew Point: 0° C
[13:30] Visibility: 85 miles
[13:30] METAR: KPRX 231656Z AUTO 30019G24KT 10SM CLR 13/M02 A2992 RMK AO2 PK WND 30027/1633 SLP150 T01281022 KPRB 231653Z AUTO 00000KT 10SM CLR 16/08 A3018 RMK AO2 SLP215 T01610078 KPRG 231655Z AUTO 18015G19KT 10SM -RA SCT014 BKN019 OVC050 14/13 A2951 RMK AO2 T01430131 KPRO 231715Z AUTO 35016G25KT 10SM OVC012 04/02 A2964 RMK AO2 T00390021 KPRC 231653Z VRB06KT 10SM CLR 09/M13 A3032 RMK AO2 SLP235 T00941128 KPRS 231715Z AUTO 36011KT 10SM SCT048 SCT055 BKN070 10/00 A3027 RMK AO2 T00950000 KPRN 231558Z AUTO 24011KT 10SM CLR 19/13 A2981 RMK AO2 SLP042 T01940133
[13:30] View Mode: Virtual Cockpit
[13:30] NOTE: Taxi started
[13:30] Flaps: Position 1
[13:31] Engine 1: Stopped
[13:32] Engine 1: Started
[13:33] View Mode: Virtual Cockpit
[13:35] Flaps: Position 0
[13:35] GS: 75 knots
[13:35] TAS: 72 knots
[13:35] IAS: 71 knots
[13:35] VS: 25 fpm
[13:37] Flaps: Position 1
[13:37] GS: 79 knots
[13:37] TAS: 76 knots
[13:37] IAS: 76 knots
[13:37] VS: -377 fpm
[13:37] Flaps: Position 2
[13:37] GS: 66 knots
[13:37] TAS: 62 knots
[13:37] IAS: 62 knots
[13:37] VS: -280 fpm
[13:39] NOTE: ----- LANDED -----
[13:39] Landing Rate: -205.31 fpm
[13:39] GS: 27 knots
[13:39] TAS: 27 knots
[13:39] IAS: 28 knots
[13:39] VS: -193 fpm
[13:39] FOB: 75 lbs
[13:39] Heading: 343°
[13:39] Pitch: 3°
[13:39] Bank: 2°
[13:39] Aircraft Weight: 1075.39 lbs
[13:39] Nearest Airport: PZ02
[13:39] Distance: 0.24 miles
[13:39] Runway: ???
[13:39] Ground Surface: Water
[13:39] Ground Condition: Normal
[13:39] NOTE: Weather Report
[13:39] Wind Heading: 255°
[13:39] Wind Speed: 2 knots
[13:39] OAT: 14° C
[13:39] TAT: 15° C
[13:39] Precipitation: None
[13:39] Dew Point: 0° C
[13:39] Visibility: 85 miles
[13:39] METAR: KPRX 231656Z AUTO 30019G24KT 10SM CLR 13/M02 A2992 RMK AO2 PK WND 30027/1633 SLP150 T01281022 KPRB 231653Z AUTO 00000KT 10SM CLR 16/08 A3018 RMK AO2 SLP215 T01610078 KPRG 231655Z AUTO 18015G19KT 10SM -RA SCT014 BKN019 OVC050 14/13 A2951 RMK AO2 T01430131 KPRO 231715Z AUTO 35016G25KT 10SM OVC012 04/02 A2964 RMK AO2 T00390021 KPRC 231653Z VRB06KT 10SM CLR 09/M13 A3032 RMK AO2 SLP235 T00941128 KPRS 231715Z AUTO 36011KT 10SM SCT048 SCT055 BKN070 10/00 A3027 RMK AO2 T00950000 KPRN 231558Z AUTO 24011KT 10SM CLR 19/13 A2981 RMK AO2 SLP042 T01940133
[13:39] View Mode: Virtual Cockpit
[13:40] Flaps: Position 1
[13:42] Slew Mode: Activated
[13:42] Slew Mode: Deactivated
[13:42] Slew Mode: Activated
[13:42] Slew Mode: Deactivated
[13:43] View Mode: Virtual Cockpit
[13:44] Flaps: Position 0
[13:44] GS: 48 knots
[13:44] TAS: 51 knots
[13:44] IAS: 51 knots
[13:44] VS: 584 fpm
[13:57] Flaps: Position 1
[13:57] GS: 68 knots
[13:57] TAS: 68 knots
[13:57] IAS: 67 knots
[13:57] VS: -511 fpm
[13:57] Flaps: Position 2
[13:57] GS: 48 knots
[13:57] TAS: 53 knots
[13:57] IAS: 53 knots
[13:57] VS: -554 fpm
[13:59] Stall: Encountered
[13:59] GS: 21 knots
[13:59] TAS: 22 knots
[13:59] IAS: 23 knots
[13:59] VS: -186 fpm
[13:59] NOTE: ----- LANDED -----
[13:59] Landing Rate: -143.79 fpm
[13:59] GS: 19 knots
[13:59] TAS: 20 knots
[13:59] IAS: 21 knots
[13:59] VS: -101 fpm
[13:59] FOB: 65 lbs
[13:59] Heading: 202°
[13:59] Pitch: 5°
[13:59] Bank: -1°
[13:59] Aircraft Weight: 1065.56 lbs
[13:59] Nearest Airport: PZ05
[13:59] Distance: 0.06 miles
[13:59] Runway: ???
[13:59] Ground Surface: Grass
[13:59] Ground Condition: Normal
[13:59] NOTE: Weather Report
[13:59] Wind Heading: 257°
[13:59] Wind Speed: 2 knots
[13:59] OAT: 14° C
[13:59] TAT: 15° C
[13:59] Precipitation: None
[13:59] Dew Point: 0° C
[13:59] Visibility: 85 miles
[13:59] METAR: KPRX 231656Z AUTO 30019G24KT 10SM CLR 13/M02 A2992 RMK AO2 PK WND 30027/1633 SLP150 T01281022 KPRB 231653Z AUTO 00000KT 10SM CLR 16/08 A3018 RMK AO2 SLP215 T01610078 KPRG 231655Z AUTO 18015G19KT 10SM -RA SCT014 BKN019 OVC050 14/13 A2951 RMK AO2 T01430131 KPRO 231715Z AUTO 35016G25KT 10SM OVC012 04/02 A2964 RMK AO2 T00390021 KPRC 231653Z VRB06KT 10SM CLR 09/M13 A3032 RMK AO2 SLP235 T00941128 KPRS 231715Z AUTO 36011KT 10SM SCT048 SCT055 BKN070 10/00 A3027 RMK AO2 T00950000 KPRN 231558Z AUTO 24011KT 10SM CLR 19/13 A2981 RMK AO2 SLP042 T01940133
[13:59] View Mode: Virtual Cockpit
[13:59] Flaps: Position 1
[13:59] NOTE: Arrived
[14:00] Parking Brake: Engaged
[14:01] Parking Brake: Released
[14:01] View Mode: Virtual Cockpit
[14:03] Flaps: Position 0
[14:03] GS: 60 knots
[14:03] TAS: 65 knots
[14:03] IAS: 64 knots
[14:03] VS: 556 fpm
[14:12] Flaps: Position 1
[14:12] GS: 58 knots
[14:12] TAS: 59 knots
[14:12] IAS: 59 knots
[14:12] VS: -511 fpm
[14:12] Flaps: Position 2
[14:12] GS: 52 knots
[14:12] TAS: 54 knots
[14:12] IAS: 54 knots
[14:12] VS: -209 fpm
[14:13] Stall: Encountered
[14:13] GS: 21 knots
[14:13] TAS: 20 knots
[14:13] IAS: 21 knots
[14:13] VS: -164 fpm
[14:13] Stall: Corrected
[14:13] GS: 19 knots
[14:13] TAS: 19 knots
[14:13] IAS: 19 knots
[14:13] VS: -134 fpm
[14:13] NOTE: ----- LANDED -----
[14:13] Landing Rate: -120.72 fpm
[14:13] GS: 17 knots
[14:13] TAS: 19 knots
[14:13] IAS: 19 knots
[14:13] VS: -111 fpm
[14:13] FOB: 58 lbs
[14:13] Heading: 359°
[14:13] Pitch: 5°
[14:13] Bank: 4°
[14:13] Aircraft Weight: 1058.99 lbs
[14:13] Nearest Airport: KPR
[14:13] Distance: 0.09 miles
[14:13] Runway: ???
[14:13] Ground Surface: Water
[14:13] Ground Condition: Normal
[14:13] NOTE: Weather Report
[14:13] Wind Heading: 262°
[14:13] Wind Speed: 2 knots
[14:13] OAT: 15° C
[14:13] TAT: 15° C
[14:13] Precipitation: None
[14:13] Dew Point: 0° C
[14:13] Visibility: 85 miles
[14:13] METAR: KPRX 231656Z AUTO 30019G24KT 10SM CLR 13/M02 A2992 RMK AO2 PK WND 30027/1633 SLP150 T01281022 KPRB 231653Z AUTO 00000KT 10SM CLR 16/08 A3018 RMK AO2 SLP215 T01610078 KPRG 231655Z AUTO 18015G19KT 10SM -RA SCT014 BKN019 OVC050 14/13 A2951 RMK AO2 T01430131 KPRO 231715Z AUTO 35016G25KT 10SM OVC012 04/02 A2964 RMK AO2 T00390021 KPRC 231653Z VRB06KT 10SM CLR 09/M13 A3032 RMK AO2 SLP235 T00941128 KPRS 231715Z AUTO 36011KT 10SM SCT048 SCT055 BKN070 10/00 A3027 RMK AO2 T00950000 KPRN 231558Z AUTO 24011KT 10SM CLR 19/13 A2981 RMK AO2 SLP042 T01940133
[14:13] View Mode: Virtual Cockpit
[14:14] Engine 1: Stopped
[14:14] Gate: n/a
[14:14] NOTE: Flight Completed
[14:14] FS Aircraft: Savage Shock Ultra Floats Asobo
[14:14] FS Model: TT:ATCCOM.AC_MODEL_SAVG
[14:14] FS Type: TT:ATCCOM.ATC_NAME_SAVA
[14:14] FOB: 58 lbs
[14:14] Fuel Used: 26 lbs
[14:14] Flight Time: 00:50:45
[14:14] Flight Time (Dawn): 00:00:00
[14:14] Flight Time (Day): 00:50:45
[14:14] Flight Time (Dusk): 00:00:00
[14:14] Flight Time (Night): 00:00:00
[14:14] Total Landings: 4
[14:14] MaxSim Rate: 1x
[14:14] Cigar Box - 1.1.4.0
[14:14] ----- Flight Closed -----

Route Map